TimeEDT,TemperatureF,Dew PointF,Humidity,Sea Level PressureIn,VisibilityMPH,Wind Direction,Wind SpeedMPH,Gust SpeedMPH,PrecipitationIn,Events,Conditions,WindDirDegrees,DateUTC
12:56 AM,59.0,46.0,62,30.16,10.0,SSW,4.6,-,N/A,,Clear,210,2013-05-15 04:56:00
1:56 AM,59.0,46.9,64,30.15,10.0,SSW,4.6,-,N/A,,Scattered Clouds,210,2013-05-15 05:56:00
2:56 AM,59.0,48.9,69,30.14,10.0,SSW,5.8,-,N/A,,Clear,200,2013-05-15 06:56:00
3:56 AM,57.9,50.0,75,30.15,10.0,South,3.5,-,N/A,,Clear,190,2013-05-15 07:56:00
4:56 AM,59.0,53.1,81,30.14,10.0,SSW,5.8,-,N/A,,Clear,200,2013-05-15 08:56:00
5:56 AM,61.0,54.0,78,30.14,10.0,SSW,6.9,-,N/A,,Clear,200,2013-05-15 09:56:00
7:56 AM,66.0,55.0,68,30.14,10.0,SW,9.2,-,N/A,,Clear,220,2013-05-15 11:56:00
8:56 AM,70.0,52.0,53,30.13,10.0,SW,13.8,20.7,N/A,,Clear,230,2013-05-15 12:56:00
9:56 AM,73.9,51.1,45,30.11,10.0,WSW,11.5,23.0,N/A,,Clear,240,2013-05-15 13:56:00
10:56 AM,77.0,52.0,42,30.09,10.0,SW,11.5,-,N/A,,Clear,230,2013-05-15 14:56:00
11:56 AM,80.1,55.0,42,30.08,10.0,WSW,12.7,17.3,N/A,,Clear,250,2013-05-15 15:56:00
12:56 PM,82.0,55.9,41,30.06,10.0,WSW,9.2,-,N/A,,Clear,240,2013-05-15 16:56:00
1:56 PM,84.0,57.0,40,30.04,10.0,WSW,10.4,-,N/A,,Clear,240,2013-05-15 17:56:00
2:56 PM,82.9,61.0,47,30.01,10.0,SSE,13.8,19.6,N/A,,Clear,160,2013-05-15 18:56:00
4:56 PM,81.0,61.0,50,29.98,10.0,South,12.7,18.4,N/A,,Clear,190,2013-05-15 20:56:00
5:56 PM,80.1,61.0,52,29.97,10.0,South,10.4,-,N/A,,Clear,190,2013-05-15 21:56:00
6:56 PM,78.1,61.0,56,29.97,10.0,SSW,10.4,16.1,N/A,,Clear,200,2013-05-15 22:56:00
7:56 PM,73.0,61.0,66,29.97,10.0,South,6.9,-,N/A,,Clear,190,2013-05-15 23:56:00
8:56 PM,70.0,60.1,71,29.99,10.0,SSW,5.8,-,N/A,,Clear,210,2013-05-16 00:56:00
9:56 PM,69.1,59.0,70,30.00,10.0,SSW,6.9,-,N/A,,Clear,210,2013-05-16 01:56:00
10:56 PM,68.0,59.0,73,29.99,10.0,SW,11.5,17.3,N/A,,Clear,230,2013-05-16 02:56:00
11:56 PM,68.0,59.0,73,29.98,10.0,SW,9.2,-,N/A,,Clear,230,2013-05-16 03:56:00